sat.trackr.live / text

‹ back to catalog

STARLINK-3620

NORAD 51775 · 2022-017H

PAYLOAD ACTIVE UNKNOWN

§ Identity

Operator
Country
US
Launch date
2022-02-25
Launch site
AFWTR
Launch vehicle
Mass (kg)
RCS (m²)

Purposes: comms

External: N2YO · Heavens-Above · Gunter

§ Orbital elements

Epoch: 2026-05-25T06:00:02.000160Z

Period
93.42 min
Inclination
53.2181°
Eccentricity
0.0001677
Mean motion
15.41504750 rev/d
Perigee alt
440.5 km
Apogee alt
442.8 km
Semi-major
6,819.8 km
B*
2.6806e-3
RAAN
350.3951°
Arg perigee
77.0942°
Mean anomaly
13.5061°
Rev number
577

§ Raw data

STARLINK-36201 51775U 22017H   26145.25002315  .00115446  00000+0  26806-2 0  99972 51775  53.2181 350.3951 0001677  77.0942  13.5061 15.41504750  5770

JSON: /api/v1/satellites/51775 · /tle

For live sub-satellite position, see the globe view (requires WebGL).

§ Visibility from observer

Set your observer location to see the next 7 days of passes ≥ 10°. The values pass through the URL so the page stays shareable.

No JS? Fill the form by hand. The geolocation button needs JavaScript.